• Processing (Info)

  • MPEC 2007-S47 : 2007 SE11

    The following Minor Planet Electronic Circular may be linked-to from your own Web pages, but must not otherwise be redistributed electronically.

    A form allowing access to any MPEC is at the bottom of this page.


    Read MPEC 2007-S46 Read MPEC 2007-S48


    M.P.E.C. 2007-S47                                Issued 2007 Sept. 24, 17:04 UT
    
         The Minor Planet Electronic Circulars contain information on unusual
             minor planets and routine data on comets.  They are published
       on behalf of Commission 20 of the International Astronomical Union by the
              Minor Planet Center, Smithsonian Astrophysical Observatory,
                              Cambridge, MA 02138, U.S.A.
    
                 Prepared using the Tamkin Foundation Computer Network
    
                                  MPC@CFA.HARVARD.EDU
              URL http://www.cfa.harvard.edu/iau/mpc.html  ISSN 1523-6714
    
                                       2007 SE11
    
    Observations:
         K07S11E* C2007 09 20.74218 05 33 29.23 -31 20 33.8          20.0 V ES047E12
         K07S11E  C2007 09 20.75184 05 33 29.44 -31 20 25.6          19.9 V ES047E12
         K07S11E  C2007 09 20.76182 05 33 29.66 -31 20 17.3          19.9 V ES047E12
         K07S11E  C2007 09 20.77223 05 33 29.88 -31 20 09.9          19.2 V ES047E12
         K07S11E  C2007 09 21.63606 05 33 51.03 -31 08 28.0          19.0 R ES047E12
         K07S11E  C2007 09 21.64072 05 33 51.09 -31 08 24.0          19.0 R ES047E12
         K07S11E  C2007 09 22.27602 05 34 04.65 -30 59 43.5          18.8 R ES047I77
         K07S11E  C2007 09 22.27878 05 34 04.71 -30 59 41.6          18.8 R ES047I77
         K07S11E  C2007 09 22.76289 05 34 14.39 -30 52 49.7          19.0 R ES047E12
         K07S11E  C2007 09 22.76586 05 34 14.44 -30 52 46.9          19.0 R ES047E12
         K07S11E  C2007 09 23.49045 05 34 28.29 -30 42 23.7          18.9 V ES047F85
         K07S11E  C2007 09 23.50783 05 34 28.52 -30 42 09.2                 ES047F85
         K07S11E  C2007 09 23.52558 05 34 28.77 -30 41 54.1                 ES047F85
    
    Observer details:
    E12 Siding Spring Survey.  Observer R. H. McNaught.  Measurers E. C. Beshore,
        A. Boattini, G. J. Garradd, A. R. Gibbs, A. D. Grauer, R. E. Hill,
        R. A. Kowalski, S. M. Larson, R. H. McNaught.  0.5-m Uppsala Schmidt + CCD.
    F85 Tiki Observatory, Punaauia.  Observer N. Teamo.  Measurer J. C. Pelle.
        0.41-m f/8.0 Ritchey-Chretien + 3056x3056 CCD.
    I77 CEAMIG-REA Observatory, Belo Horizonte.  Observers C. Jacques, E. Pimentel.
        Measurer C. Jacques.  0.30-m f/3.0 Schmidt-Cassegrain + CCD.
    
    Orbital elements:
    2007 SE11                                                Earth MOID = 0.2428 AU
    Epoch 2007 Oct. 27.0 TT = JDT 2454400.5                 MPC
    M 356.72132              (2000.0)            P               Q
    n   0.44775240     Peri.  354.55885     +0.70170106     -0.46131961
    a   1.6921704      Node    49.09586     +0.67778144     +0.19732654
    e   0.2720923      Incl.   45.92075     +0.21960863     +0.86501240
    P   2.20           H   17.7           G   0.15           U   9
    Residuals in seconds of arc
    070920 E12  0.2-  0.6-    070921 E12  0.4-  0.6+    070923 F85  0.1-  0.0
    070920 E12  0.0   0.1+    070922 I77  0.3-  0.5-    070923 F85  0.2-  0.1-
    070920 E12  0.2+  0.6+    070922 I77  0.1-  0.9-    070923 F85  0.0   0.0
    070920 E12  0.3+  0.2-    070922 E12  0.3+  0.3+
    070921 E12  0.0   0.3+    070922 E12  0.4+  0.6+
    
    Ephemeris:
    2007 SE11                a,e,i = 1.69, 0.27, 46                  q = 1.2317
    Date    TT    R. A. (2000) Decl.     Delta      r     Elong.  Phase     V
    2007 09 17    05 31.60   -32 07.6    0.764    1.288    92.4    51.2    19.6
    2007 09 27    05 35.16   -29 48.0    0.657    1.268    97.4    51.7    19.2
    2007 10 07    05 33.06   -26 22.2    0.544    1.251   104.4    50.7    18.7
    2007 10 17    05 22.25   -20 39.7    0.430    1.240   114.8    46.9    18.1
    2007 10 27    04 57.13   -10 05.8    0.325    1.233   131.3    37.3    17.2
    2007 11 06    04 08.09   +09 21.2    0.255    1.232   158.2    17.4    16.1
    2007 11 16    02 47.52   +33 59.0    0.256    1.236   162.7    13.8    16.0
    2007 11 26    01 15.55   +48 51.5    0.329    1.245   136.2    33.2    17.2
    2007 12 06    00 08.48   +54 12.1    0.436    1.259   119.7    42.8    18.1
    2007 12 16    23 32.14   +56 12.7    0.553    1.278   109.2    46.6    18.7
    2007 12 26    23 16.22   +57 32.7    0.671    1.301   102.0    47.7    19.2
    2008 01 05    23 12.77   +58 57.3    0.785    1.327    96.6    47.4    19.6
    2008 01 15    23 17.77   +60 39.5    0.891    1.357    92.6    46.4    19.9
    2008 01 25    23 29.35   +62 42.2    0.989    1.388    89.4    45.1    20.1
    2008 02 04    23 47.14   +65 03.9    1.078    1.422    87.0    43.8    20.3
    2008 02 14    00 12.04   +67 41.6    1.159    1.458    85.1    42.4    20.5
    2008 02 24    00 46.21   +70 28.5    1.233    1.494    83.7    41.2    20.6
    2008 03 05    01 33.75   +73 11.0    1.300    1.531    82.7    40.0    20.8
    2008 03 15    02 40.27   +75 25.4    1.363    1.568    81.8    38.9    20.9
    2008 03 25    04 07.73   +76 33.0    1.423    1.606    81.1    37.8    21.0
    2008 04 04    05 43.79   +75 55.8    1.483    1.643    80.3    36.9    21.1
    2008 04 14    07 07.44   +73 30.7    1.545    1.679    79.4    35.9    21.2
    2008 04 24    08 10.60   +69 47.8    1.610    1.715    78.2    35.0    21.3
    2008 05 04    08 57.28   +65 18.8    1.680    1.750    76.7    34.1    21.5
    2008 05 14    09 33.13   +60 25.3    1.756    1.784    74.9    33.2    21.6
    2008 05 24    10 02.09   +55 21.3    1.839    1.817    72.7    32.2    21.7
    2008 06 03    10 26.58   +50 15.5    1.928    1.849    70.2    31.1    21.8
    2008 06 13    10 48.12   +45 13.8    2.022    1.879    67.2    29.9    21.9
    2008 06 23    11 07.63   +40 20.0    2.121    1.908    64.0    28.6    22.0
    
    Timothy B. Spahr             (C) Copyright 2007 MPC           M.P.E.C. 2007-S47
    

    Read MPEC 2007-S46 Read MPEC 2007-S48


    MPEC number:

    Enter an MPEC number in one of the following forms:

    • 1997-B01 (the full form)
    • J97B01 (the packed version of the full form)
    • B01 (the abbreviated form)